Location: *
(43.6428°N, 11.5461°E)
Time: 02:40:14
(UTC+00:00)

Cosmos 2082 Rocket - Pass Details

Date: 21 October 2019
Orbit: 832 x 854 km, 71.0° (Epoch: 17 November)

Event Time Altitude Azimuth Distance (km) Brightness Sun altitude
Rises 17:58:12 0° 334° (NNW) 3,431 5.8 -18.2°
Reaches altitude 10° 18:00:40 10° 334° (NNW) 2,489 5.0 -18.6°
Maximum altitude 18:06:24 85° 247° (WSW) 858 2.2 -19.7°
Enters shadow 18:12:02 10° 159° (SSE) 2,450 4.4 -20.7°
